SPACEBEE-5

Last updated on Sun Feb 25 2024 00:03:33 GMT+0000 (Coordinated Universal Time)

1 43817U 18099BM 24055.21962923 .06010650 24951-5 39090-2 0 9997 2 43817 97.5303 139.7092 0013570 295.1480 64.8399 16.17091651286392
UTC large
Height (km)
Speed (km/s)
/
Latitude / Longitude
Inclination (degrees)
Orbital Period (minutes)
Azimuth
Elevation
Range (km)
Doppler Factor

Next 0 passes for location: London (51.5072 / 0.1276)

Sorry there are no passes over London.